Location: *
(50.2903°S, 172.5375°W)
Time: 09:52:46
(UTC+00:00)

ATLAS 3B R/B - Pass Details

Date: 17 November 2019
Orbit: 1030 x 1165 km, 63.8° (Epoch: 03 December)

Event Time Altitude Azimuth Distance (km) Brightness Sun altitude
Exits shadow 12:54:04 26° 340° (NNW) 2,123 3.6 -17.4°
Maximum altitude 12:58:31 67° 55° (NE) 1,263 3.0 -17.1°
Drops below altitude 10° 13:05:54 10° 135° (SE) 3,107 6.3 -16.5°
Sets 13:08:39 0° 137° (SE) 4,071 7.3 -16.3°
